DLH54J LFLL-EDDF

Flight info

Callsign DLH54J
Flight time N/A
Altitude 22000
Route RISOR T45 ASLEG/N0429F320 T45 SOSAL N871 KORED DCT BERSU DCT DITON/N0430F330 DCT LADOL/N0429F320 T163 EMPAX EMPAX5B
Aircraft A321/M-SDE3FGHIRWY/LB1

Departure

Time N/A
Airport Lyon Saint-Exupéry Airport (LFLL)

Arrival

Time 2026-04-17 12:58
Airport Frankfurt Main Airport (EDDF)
Time Latitude Longitude Altitude Speed Heading
2026-04-17 12:22 47.31288 8.33092 36255 ft 445 kts 35°
2026-04-17 12:22 47.33798 8.35711 36249 ft 440 kts 26°
2026-04-17 12:23 47.39255 8.39700 36245 ft 437 kts 22°
2026-04-17 12:23 47.44746 8.43580 36242 ft 438 kts 22°
2026-04-17 12:24 47.50236 8.47476 36252 ft 438 kts 22°
2026-04-17 12:24 47.55728 8.51384 36246 ft 438 kts 22°
2026-04-17 12:25 47.61220 8.55293 36243 ft 438 kts 22°
2026-04-17 12:25 47.66674 8.59181 36243 ft 438 kts 22°
2026-04-17 12:26 47.72201 8.63146 36248 ft 438 kts 22°
2026-04-17 12:26 47.77649 8.67059 36240 ft 438 kts 22°
2026-04-17 12:27 47.83135 8.71010 36233 ft 438 kts 22°
2026-04-17 12:27 47.88627 8.74965 36247 ft 438 kts 22°
2026-04-17 12:28 47.94117 8.78919 36250 ft 438 kts 22°
2026-04-17 12:28 47.99601 8.82895 36233 ft 438 kts 22°
2026-04-17 12:29 48.05082 8.86884 36234 ft 438 kts 22°
2026-04-17 12:29 48.10563 8.90876 36251 ft 438 kts 22°
2026-04-17 12:29 48.13295 8.92870 36099 ft 435 kts 22°
2026-04-17 12:30 48.16068 8.94608 35584 ft 428 kts 13°
2026-04-17 12:30 48.18934 8.95637 35137 ft 420 kts
2026-04-17 12:30 48.21817 8.96114 34672 ft 415 kts
2026-04-17 12:30 48.24676 8.96543 34209 ft 412 kts
2026-04-17 12:31 48.27522 8.96974 33675 ft 409 kts
2026-04-17 12:31 48.30338 8.97403 33156 ft 406 kts
2026-04-17 12:31 48.33135 8.97835 32665 ft 402 kts
2026-04-17 12:31 48.35906 8.98260 32174 ft 399 kts
2026-04-17 12:32 48.38653 8.98678 31673 ft 396 kts
2026-04-17 12:32 48.41384 8.99091 31176 ft 393 kts
2026-04-17 12:32 48.44094 8.99502 30686 ft 390 kts
2026-04-17 12:32 48.46790 8.99910 30192 ft 388 kts
2026-04-17 12:33 48.49464 9.00313 29646 ft 386 kts
2026-04-17 12:33 48.52125 9.00718 29236 ft 381 kts
2026-04-17 12:33 48.54767 9.01120 29190 ft 383 kts
2026-04-17 12:34 48.60083 9.01933 29199 ft 384 kts
2026-04-17 12:34 48.65403 9.02839 29194 ft 385 kts
2026-04-17 12:35 48.70700 9.04108 28994 ft 384 kts
2026-04-17 12:35 48.73318 9.04787 28494 ft 381 kts
2026-04-17 12:35 48.75920 9.05455 28007 ft 377 kts
2026-04-17 12:35 48.78498 9.06099 27530 ft 374 kts
2026-04-17 12:37 48.96118 9.09660 24265 ft 357 kts
2026-04-17 12:37 48.98586 9.09960 23802 ft 355 kts
2026-04-17 12:38 49.01039 9.10269 23274 ft 353 kts
2026-04-17 12:38 49.03480 9.10597 22755 ft 351 kts
2026-04-17 12:38 49.05901 9.10938 22253 ft 349 kts
2026-04-17 12:38 49.08311 9.11285 21762 ft 346 kts
2026-04-17 12:39 49.10703 9.11628 21277 ft 344 kts
2026-04-17 12:39 49.13080 9.11965 20801 ft 342 kts
2026-04-17 12:39 49.15445 9.12302 20328 ft 340 kts
2026-04-17 12:39 49.17796 9.12638 19881 ft 338 kts
2026-04-17 12:40 49.20135 9.12976 19425 ft 336 kts
2026-04-17 12:40 49.22456 9.13312 18975 ft 335 kts
2026-04-17 12:40 49.24769 9.13642 18531 ft 333 kts
2026-04-17 12:40 49.27073 9.13972 18038 ft 331 kts
2026-04-17 12:41 49.29341 9.14498 17553 ft 330 kts 12°
2026-04-17 12:41 49.31568 9.15297 17080 ft 328 kts 11°
2026-04-17 12:41 49.33782 9.16083 16616 ft 325 kts 11°
2026-04-17 12:41 49.35979 9.16859 16162 ft 323 kts 11°
2026-04-17 12:42 49.38162 9.17631 15709 ft 321 kts 11°
2026-04-17 12:42 49.40331 9.18398 15283 ft 319 kts 11°
2026-04-17 12:42 49.42487 9.19160 14856 ft 317 kts 11°
2026-04-17 12:42 49.44624 9.19915 14480 ft 313 kts 11°
2026-04-17 12:43 49.46725 9.20661 14171 ft 307 kts 11°
2026-04-17 12:43 49.48799 9.21401 13787 ft 305 kts 12°
2026-04-17 12:43 49.50855 9.22138 13352 ft 302 kts 12°
2026-04-17 12:43 49.52893 9.22868 12931 ft 300 kts 11°
2026-04-17 12:44 49.54947 9.23147 12510 ft 295 kts 355°
2026-04-17 12:44 49.56989 9.22938 12075 ft 294 kts 354°
2026-04-17 12:44 49.59020 9.22669 11663 ft 292 kts 354°
2026-04-17 12:44 49.61037 9.22393 11290 ft 289 kts 354°
2026-04-17 12:45 49.63031 9.22121 11205 ft 288 kts 354°
2026-04-17 12:45 49.65034 9.21839 11213 ft 291 kts 354°
2026-04-17 12:45 49.67049 9.21552 11212 ft 290 kts 354°
2026-04-17 12:45 49.69062 9.21270 11212 ft 290 kts 354°
2026-04-17 12:46 49.71070 9.20991 11211 ft 290 kts 354°
2026-04-17 12:46 49.73085 9.20707 11210 ft 291 kts 354°
2026-04-17 12:46 49.75103 9.20417 11212 ft 291 kts 354°
2026-04-17 12:46 49.77115 9.20135 11211 ft 290 kts 354°
2026-04-17 12:47 49.79129 9.19855 11215 ft 291 kts 354°
2026-04-17 12:47 49.81130 9.19571 10950 ft 288 kts 354°
2026-04-17 12:47 49.83124 9.19276 10549 ft 287 kts 353°
2026-04-17 12:47 49.85110 9.18996 10130 ft 287 kts 354°
2026-04-17 12:48 49.87103 9.18730 9678 ft 287 kts 354°
2026-04-17 12:48 49.89085 9.18455 9263 ft 285 kts 354°
2026-04-17 12:48 49.91059 9.18170 8868 ft 284 kts 353°
2026-04-17 12:48 49.93022 9.17887 8485 ft 282 kts 354°
2026-04-17 12:49 49.94971 9.17605 8077 ft 282 kts 354°
2026-04-17 12:49 49.96920 9.17317 7686 ft 280 kts 354°
2026-04-17 12:49 49.98852 9.17009 7308 ft 278 kts 351°
2026-04-17 12:49 50.00641 9.15980 6924 ft 275 kts 324°
2026-04-17 12:50 50.02078 9.14030 6495 ft 274 kts 314°
2026-04-17 12:50 50.03422 9.11982 6087 ft 274 kts 314°
2026-04-17 12:50 50.04777 9.09911 5692 ft 272 kts 314°
2026-04-17 12:50 50.06122 9.07846 5321 ft 270 kts 314°
2026-04-17 12:51 50.07439 9.05837 5199 ft 260 kts 314°
2026-04-17 12:51 50.08702 9.03907 5067 ft 249 kts 313°
2026-04-17 12:51 50.09617 9.01755 4995 ft 231 kts 289°
2026-04-17 12:51 50.10098 8.99458 4855 ft 216 kts 284°
2026-04-17 12:52 50.10502 8.97238 4575 ft 211 kts 284°
2026-04-17 12:52 50.10899 8.95047 4203 ft 210 kts 284°
2026-04-17 12:52 50.11288 8.92860 4006 ft 209 kts 284°
2026-04-17 12:52 50.11455 8.90635 4002 ft 207 kts 262°
2026-04-17 12:53 50.11072 8.88532 3998 ft 194 kts 249°
2026-04-17 12:53 50.10619 8.86611 3991 ft 187 kts 249°
2026-04-17 12:53 50.10175 8.84724 3813 ft 185 kts 249°
2026-04-17 12:53 50.09732 8.82845 3585 ft 185 kts 249°
2026-04-17 12:54 50.09288 8.80961 3364 ft 185 kts 248°
2026-04-17 12:54 50.08847 8.79091 3107 ft 185 kts 249°
2026-04-17 12:54 50.08404 8.77215 2860 ft 184 kts 249°
2026-04-17 12:54 50.07962 8.75343 2620 ft 184 kts 250°
2026-04-17 12:55 50.07522 8.73473 2384 ft 184 kts 249°
2026-04-17 12:55 50.07083 8.71622 2146 ft 178 kts 249°
2026-04-17 12:55 50.06802 8.70467 2000 ft 161 kts 248°
2026-04-17 12:55 50.06426 8.68911 1743 ft 147 kts 248°
2026-04-17 12:56 50.06183 8.67386 1529 ft 143 kts 262°
2026-04-17 12:56 50.06083 8.65860 1374 ft 142 kts 261°
2026-04-17 12:56 50.05854 8.64376 1121 ft 141 kts 251°
2026-04-17 12:56 50.05514 8.62949 928 ft 141 kts 251°
2026-04-17 12:57 50.05178 8.61503 754 ft 143 kts 253°
2026-04-17 12:57 50.05073 8.61028 694 ft 143 kts 253°
2026-04-17 12:57 50.04133 8.57054 368 ft 109 kts 249°
2026-04-17 12:58 50.03919 8.56208 355 ft 59 kts 250°
2026-04-17 12:58 50.03885 8.56005 351 ft 5 kts 273°
2026-04-17 12:58 50.03888 8.55865 350 ft 17 kts 272°
2026-04-17 12:58 50.03900 8.55717 352 ft 11 kts 279°
2026-04-17 12:59 50.03902 8.55703 352 ft 0 kts 279°
2026-04-17 12:59 50.03908 8.55649 352 ft 9 kts 279°
2026-04-17 12:59 50.03922 8.55533 349 ft 12 kts 287°
2026-04-17 13:00 50.03935 8.55514 349 ft 1 kts 11°
2026-04-17 13:00 50.03957 8.55566 354 ft 11 kts 63°
2026-04-17 13:00 50.03987 8.55689 357 ft 13 kts 70°
2026-04-17 13:00 50.04025 8.55850 359 ft 18 kts 70°
2026-04-17 13:01 50.04072 8.56047 358 ft 20 kts 70°
2026-04-17 13:01 50.04122 8.56255 360 ft 21 kts 69°
2026-04-17 13:01 50.04174 8.56472 361 ft 22 kts 70°
2026-04-17 13:01 50.04223 8.56680 359 ft 20 kts 70°
2026-04-17 13:02 50.04270 8.56800 359 ft 11 kts 28°
2026-04-17 13:02 50.04350 8.56828 360 ft 13 kts 11°
2026-04-17 13:02 50.04445 8.56852 359 ft 13 kts
2026-04-17 13:02 50.04541 8.56885 359 ft 15 kts 14°
2026-04-17 13:03 50.04642 8.56927 356 ft 15 kts 19°
2026-04-17 13:03 50.04723 8.56983 360 ft 9 kts 25°
2026-04-17 13:03 50.04785 8.57028 362 ft 9 kts 24°
2026-04-17 13:03 50.04825 8.57032 363 ft 5 kts 317°
2026-04-17 13:04 50.04839 8.56990 360 ft 5 kts 295°
2026-04-17 13:04 50.04850 8.56954 358 ft 1 kts 295°
2026-04-17 13:04 50.04852 8.56948 360 ft 0 kts 295°